GFSFLT2_sfc_wetblb_135.txt.gz
Wetbulb
49.61 48.07 46.36 43.79 44.46 45.15 46.69 45.29 45.78 47.11 47.86 47.27 46.82 46.67 46.55 47.54 48.70 49.58 50.18 50.98 51.27 51.03 51.89 52.57 53.68 55.71 57.39
44.88 42.65 43.49 42.64 42.08 41.97 42.15 42.54 41.34 43.10 44.36 44.84 45.26 45.10 46.28 46.95 46.15 46.83 47.26 47.89 47.80 48.44 49.58 50.62 51.69 52.51 54.11
39.98 41.16 41.60 39.81 38.60 38.80 37.95 38.21 39.52 40.81 41.75 42.70 43.81 44.11 44.25 44.32 44.61 45.47 45.02 45.52 46.42 47.17 47.75 48.53 49.55 50.78 52.24
36.41 36.70 36.63 37.00 35.52 34.39 33.39 34.96 35.06 37.36 38.88 40.79 41.46 42.00 42.68 43.37 43.56 43.02 43.26 44.87 45.74 46.23 46.46 46.98 47.41 48.46 50.56
32.90 32.84 32.80 32.23 31.22 33.14 32.94 34.10 34.43 34.58 34.47 36.10 36.46 37.18 37.89 40.51 40.78 41.62 43.70 44.63 44.63 45.04 45.66 46.13 46.37 47.18 48.43
29.93 29.52 30.19 30.67 31.75 32.75 32.54 32.14 30.50 34.54 34.94 34.44 35.31 35.56 36.35 37.09 40.93 42.40 42.93 43.64 43.92 43.85 44.10 44.60 45.20 45.68 46.62
29.53 29.57 29.31 31.10 33.04 32.07 31.87 33.01 32.76 34.95 34.81 32.16 35.17 34.85 35.98 37.45 40.26 41.45 42.45 43.18 42.92 43.16 43.33 43.51 44.40 45.30 45.28
30.98 31.19 32.00 32.36 32.64 34.00 33.90 34.21 33.86 32.90 34.82 30.11 34.44 33.36 35.10 36.07 39.93 40.79 42.10 41.84 41.44 41.66 41.85 42.58 44.35 45.52 45.68
34.23 34.42 34.92 35.31 35.13 33.04 28.54 28.54 27.34 29.18 31.07 32.45 31.74 32.66 34.03 33.57 33.99 39.85 40.90 40.83 40.26 39.86 40.51 43.61 43.86 44.94 44.91
27.60 28.81 30.35 30.92 33.82 31.98 30.07 27.36 27.75 28.22 32.50 30.76 31.70 31.56 29.35 28.50 34.67 36.16 33.91 37.13 38.11 37.53 39.70 40.99 41.78 38.03 37.01
25.59 26.46 27.23 27.62 28.24 28.18 30.20 29.94 28.08 28.08 32.16 32.52 31.73 31.11 30.32 30.80 32.49 33.23 34.17 33.96 31.96 33.24 36.63 38.01 39.35 38.88 35.42
25.41 24.91 25.04 25.22 25.81 26.38 27.71 30.79 31.83 30.98 32.57 32.77 30.72 30.28 28.99 27.52 27.25 31.12 33.04 33.51 31.05 31.04 32.76 34.43 35.52 36.05 36.62
24.34 23.30 23.65 24.16 25.01 23.43 24.79 27.09 29.57 32.08 32.81 33.05 31.57 31.03 29.35 27.33 26.83 28.83 30.16 30.98 28.40 30.49 24.79 25.45 29.52 26.06 28.41
22.72 22.16 19.49 17.91 19.99 20.04 21.36 24.44 26.65 26.63 25.56 27.50 29.53 30.05 26.82 26.59 28.59 27.32 28.62 27.19 25.07 25.75 27.45 25.67 26.52 27.87 27.89
19.55 20.40 21.81 20.69 22.53 18.03 14.69 21.68 23.15 24.89 25.43 27.53 24.37 27.05 28.06 27.83 26.80 28.16 27.59 27.62 22.22 28.10 23.63 22.14 24.78 26.80 28.75
22.76 16.90 19.71 20.71 21.43 21.53 15.90 22.79 22.44 24.01 24.04 26.23 25.43 22.91 20.60 25.46 30.64 28.02 27.10 24.34 20.65 22.52 23.13 19.05 21.41 26.52 29.83
15.07 12.24 16.25 16.02 19.48 18.09 16.34 20.17 22.16 21.60 23.28 25.74 25.78 23.35 15.72 14.67 24.32 31.83 26.99 25.98 24.35 22.16 24.47 23.47 21.47 27.39 31.03

GFSFLT2_sfc_wetblb_138.txt.gz
Wetbulb
48.05 46.88 43.13 42.32 42.65 44.27 43.76 43.78 43.04 43.83 44.78 45.20 45.59 45.87 45.99 46.59 47.15 47.10 47.27 47.77 48.36 49.44 50.08 50.32 51.04 51.47 52.16
43.66 41.87 42.14 41.00 41.13 40.43 40.03 40.68 40.09 41.28 42.96 43.48 44.18 44.49 44.23 44.70 44.76 44.98 45.21 45.50 45.85 46.66 47.36 48.25 48.93 49.74 50.61
39.60 40.98 40.82 38.21 37.84 38.29 37.55 37.42 37.98 39.64 40.78 42.09 42.51 42.68 43.09 43.41 43.78 44.07 43.88 44.03 44.97 45.41 45.77 46.38 47.14 48.12 49.24
35.96 35.67 34.53 35.71 34.68 33.52 32.50 34.54 34.86 37.05 38.38 39.75 40.37 40.65 41.08 42.09 42.10 41.87 42.39 43.37 44.34 44.85 45.10 45.38 45.87 46.48 47.39
32.42 31.82 30.65 30.62 30.58 32.39 31.90 33.10 34.25 34.51 34.27 35.11 35.55 35.98 36.85 39.24 39.35 40.77 41.96 42.64 44.02 44.92 44.70 44.46 44.34 44.66 45.47
28.24 28.17 28.56 30.00 31.23 31.14 30.75 30.36 28.90 33.95 33.19 32.88 33.26 33.44 34.95 35.34 39.92 40.99 41.64 43.18 43.70 43.37 43.55 43.79 43.59 43.29 43.88
29.03 28.61 28.11 29.39 30.19 28.88 31.49 31.81 30.74 33.65 32.67 30.18 30.61 31.05 34.24 36.04 38.96 40.27 41.45 42.87 42.34 42.01 42.01 41.77 42.17 43.36 45.08
29.47 29.28 30.20 31.10 30.88 31.92 31.96 29.36 28.92 29.46 30.33 28.15 29.30 31.01 34.40 34.28 38.36 39.36 41.39 40.61 40.72 40.41 40.38 40.58 42.88 43.38 43.37
33.48 33.91 34.25 34.53 34.14 29.35 25.02 25.14 24.88 26.04 27.50 31.57 32.22 31.44 32.34 32.00 31.70 38.89 39.12 38.42 38.77 39.02 38.78 38.85 41.21 41.81 39.94
26.93 28.43 29.63 29.52 32.44 28.04 25.48 21.68 25.17 23.15 29.69 27.60 25.55 30.22 28.77 28.23 31.12 31.90 31.99 36.60 37.66 37.35 37.02 37.62 38.97 38.66 37.39
25.13 25.82 26.35 26.60 26.62 26.66 26.45 24.17 25.78 26.44 29.44 30.80 30.90 30.44 29.28 28.82 25.34 26.30 28.74 31.22 33.49 33.25 34.62 35.76 37.36 37.94 36.15
26.25 25.07 24.88 24.37 24.63 25.21 26.13 25.79 26.77 28.68 30.74 31.69 29.72 30.30 28.65 27.12 24.65 25.94 29.28 32.02 32.15 31.24 31.80 33.67 34.55 35.35 35.92
24.43 23.61 23.90 22.50 23.46 21.97 22.92 24.60 23.05 26.54 29.71 28.97 30.85 31.39 29.78 27.49 26.42 27.08 28.85 29.82 30.21 26.71 28.18 27.95 28.42 28.64 28.19
23.46 22.05 18.85 15.57 17.11 17.17 11.84 13.61 22.27 19.66 26.84 21.44 23.08 27.74 27.27 26.21 27.35 26.82 28.85 26.68 29.61 29.29 29.08 28.78 28.11 27.98 27.06
19.17 16.51 18.81 18.88 18.97 15.95 13.78 16.94 21.91 22.58 23.03 24.16 26.36 26.58 27.35 28.16 26.35 27.76 28.08 28.00 28.32 25.29 27.78 27.66 27.31 26.28 26.47
24.24 15.27 12.87 14.90 17.78 14.45 12.49 11.72 18.05 21.86 20.07 21.13 22.82 26.03 19.43 23.84 29.77 26.70 28.00 27.06 27.26 25.77 26.38 25.50 22.14 25.66 27.95
23.68 13.83 11.08 12.16 16.74 14.68 13.93 14.68 17.68 18.07 18.94 20.77 21.71 23.18 18.08 13.60 23.43 32.38 25.63 24.83 26.86 25.93 23.58 23.18 25.89 27.55 30.66

GFSFLT2_sfc_wetblb_144.txt.gz
Wetbulb
45.97 44.75 42.63 42.40 42.14 42.33 41.91 41.77 41.29 42.04 43.56 44.10 44.46 45.14 44.44 44.99 45.28 45.65 46.03 46.54 47.21 47.66 48.09 48.07 48.65 49.04 49.48
43.13 42.89 40.38 39.51 40.23 39.60 39.43 40.17 39.77 40.53 42.02 43.14 43.22 42.94 43.06 43.22 43.83 44.43 44.53 44.72 45.01 45.48 45.84 46.57 47.33 47.90 48.52
39.93 40.87 39.54 37.53 38.05 38.37 37.90 39.30 40.26 40.18 40.72 41.86 41.82 41.50 41.48 41.60 42.47 43.05 42.56 42.92 43.72 44.27 44.79 45.21 45.91 46.89 47.17
39.80 36.37 36.87 36.57 36.81 35.72 36.48 38.90 38.11 40.07 40.13 39.88 40.52 40.34 40.54 40.63 40.90 40.52 41.07 42.20 42.98 43.69 44.32 45.41 45.12 44.96 45.47
35.85 36.85 35.82 35.45 35.33 36.07 35.16 36.43 38.22 40.07 39.25 38.94 39.06 39.43 40.46 39.79 39.90 39.84 40.31 41.09 42.11 43.35 44.88 44.35 43.66 43.37 43.81
35.96 35.37 34.93 35.42 36.67 35.67 35.21 34.81 34.42 40.25 35.93 35.12 38.52 38.06 39.31 40.22 39.26 39.05 39.53 40.49 42.71 41.84 41.84 42.04 41.96 42.00 41.98
36.02 35.70 35.27 35.64 35.53 35.18 35.33 34.60 33.84 36.12 34.69 34.17 37.92 37.11 39.64 38.62 39.01 38.74 39.51 41.03 39.97 39.85 40.12 40.30 40.43 40.71 40.78
36.02 35.83 36.53 37.09 36.61 35.64 34.65 33.88 34.92 36.09 35.47 31.43 36.42 34.95 36.44 37.93 38.48 38.24 39.75 38.93 38.64 38.78 39.28 39.12 39.10 39.26 39.53
34.09 34.49 33.85 34.16 34.06 33.78 31.99 30.65 30.96 33.40 34.81 31.71 33.73 32.75 34.44 36.40 38.14 37.63 37.92 37.78 38.13 38.15 38.35 38.23 38.09 38.05 37.58
33.62 33.27 32.99 32.72 31.11 32.14 31.23 28.81 27.97 29.43 33.42 30.21 31.25 31.49 29.37 35.25 36.36 36.54 36.90 37.34 37.47 37.66 37.54 36.96 36.95 35.40 35.85
32.80 33.06 32.60 31.89 31.84 31.82 31.63 30.34 27.64 27.81 32.03 30.51 29.13 29.74 29.79 30.55 33.82 36.07 36.57 36.54 36.77 36.47 36.06 35.49 35.90 35.40 33.53
31.38 31.26 30.34 30.24 30.49 30.56 30.67 31.00 31.45 30.13 31.65 31.00 27.63 28.12 28.20 28.02 28.28 33.92 34.92 35.81 36.48 33.63 33.54 34.54 34.79 35.26 35.31
30.27 29.98 29.67 29.79 28.99 29.61 30.17 30.25 30.33 30.51 30.95 31.65 30.01 30.45 29.32 27.24 26.92 28.73 30.94 32.37 32.77 32.60 32.29 31.42 30.75 31.19 30.76
30.25 30.22 29.49 28.91 28.41 28.74 27.44 28.15 27.74 30.25 32.81 32.03 31.19 29.39 26.67 27.86 28.91 28.00 30.69 28.66 31.71 32.98 31.32 30.73 30.67 32.45 34.00
28.95 27.74 27.23 27.59 27.55 28.19 26.96 26.22 25.56 26.69 28.07 30.62 32.43 31.44 30.73 28.81 25.44 28.79 30.89 30.45 31.79 31.32 30.73 28.56 29.83 32.61 34.14
27.97 26.59 25.51 26.22 26.42 27.59 26.96 25.91 24.93 25.84 26.68 28.01 28.16 26.98 29.10 31.88 32.83 29.79 31.02 30.64 31.44 31.04 30.34 28.11 27.88 32.37 34.30
27.00 26.38 25.97 25.97 25.56 25.56 25.89 26.03 25.21 25.55 26.05 27.13 26.41 24.36 22.44 22.83 29.73 33.80 30.08 30.60 30.61 29.24 29.42 28.29 27.58 29.46 32.77

GFSFLT2_sfc_wetblb_147.txt.gz
Wetbulb
46.16 44.49 42.43 43.34 42.20 42.64 42.11 42.07 41.77 41.47 42.84 43.62 44.22 45.00 44.64 44.65 45.03 45.48 45.95 46.25 46.89 47.66 48.17 48.31 48.50 48.99 49.36
43.52 42.55 40.84 40.31 40.90 40.41 40.02 40.67 40.64 41.23 41.68 42.32 43.47 42.88 42.72 43.11 43.26 43.78 44.47 44.60 44.56 45.07 45.66 46.29 47.03 47.58 48.21
40.65 41.28 39.53 38.27 38.30 38.78 38.14 39.23 40.07 41.41 41.25 40.94 42.10 42.21 42.30 42.40 42.22 42.60 42.71 42.40 42.92 43.67 44.29 44.92 45.58 46.50 47.37
39.58 37.61 37.64 37.29 37.76 36.65 36.60 38.61 37.81 40.40 40.33 40.66 41.51 41.81 41.49 41.83 41.15 40.79 40.71 41.41 42.11 42.76 43.45 44.48 45.56 45.28 45.10
36.87 36.70 36.37 36.06 34.48 35.54 34.82 36.06 37.40 38.96 38.40 37.17 37.43 37.55 38.65 40.23 40.36 40.41 40.00 40.52 41.08 42.23 43.85 43.55 43.31 43.30 43.40
35.62 34.39 34.04 34.58 35.39 34.49 34.22 33.43 31.84 38.09 33.99 33.16 35.90 35.83 37.38 38.10 40.16 40.00 39.89 39.94 41.29 41.05 41.24 41.57 41.47 41.46 41.44
34.75 34.08 33.83 34.42 34.60 34.18 34.24 33.12 32.15 34.09 33.25 31.32 34.84 33.92 36.47 37.04 39.14 39.51 39.38 40.77 39.99 39.87 39.80 40.14 40.06 40.12 40.40
35.26 34.98 35.42 35.71 35.55 34.45 32.99 32.53 33.16 34.59 33.79 28.68 33.14 31.77 33.93 34.74 38.72 38.14 39.07 39.29 39.03 39.13 39.31 39.50 39.44 39.24 39.19
35.19 35.02 34.31 34.82 33.48 32.21 30.13 28.76 28.69 30.18 32.53 30.64 30.14 29.97 30.44 31.62 35.24 37.77 38.21 38.27 38.40 38.69 38.91 39.00 38.65 38.08 36.80
31.81 32.08 32.74 32.33 31.74 31.36 30.16 27.06 27.27 27.44 32.09 27.43 27.96 28.58 25.27 30.03 31.77 33.28 33.94 37.16 37.87 37.97 37.90 37.77 37.27 34.63 33.48
30.93 31.03 31.04 30.69 30.84 30.58 30.41 28.41 27.31 26.61 30.32 29.87 26.13 27.58 28.77 27.92 28.29 28.95 31.09 32.21 32.87 34.66 36.61 36.05 36.08 35.71 32.45
29.87 29.73 29.18 29.26 29.35 29.07 29.09 29.00 29.57 28.85 29.87 28.66 27.19 26.62 25.56 25.42 25.33 27.76 29.36 31.04 32.31 31.73 32.48 34.25 34.99 35.10 35.04
29.43 29.63 29.07 28.62 27.77 27.93 28.21 28.98 27.31 28.70 30.11 26.07 26.79 26.20 26.63 25.24 24.79 26.22 27.51 29.51 31.51 31.71 31.40 31.34 30.63 30.84 29.46
29.81 30.02 29.04 27.72 26.77 26.71 23.89 24.35 22.99 25.52 28.55 27.50 25.72 25.31 25.73 26.09 26.18 24.77 27.00 25.85 30.30 31.41 30.88 30.78 31.13 31.21 30.39
29.99 28.94 27.97 28.00 26.94 25.81 23.75 22.20 20.73 21.83 23.29 25.91 30.46 30.04 28.98 27.29 25.81 27.19 27.02 28.80 30.30 30.33 29.80 28.83 29.85 30.56 30.79
29.24 28.25 26.52 25.70 25.77 26.61 26.59 25.22 23.42 21.50 22.33 26.13 26.24 25.54 25.90 25.93 31.38 27.09 27.41 28.73 29.61 29.69 29.48 27.86 27.68 30.16 31.16
27.76 27.22 26.47 25.81 24.96 24.51 24.77 24.57 24.55 23.03 24.08 25.76 25.46 24.12 21.31 19.64 24.34 32.26 24.59 25.46 26.15 28.31 29.12 28.51 27.83 29.53 30.83

GFSFLT2_sfc_wetblb_150.txt.gz
Wetbulb
45.63 44.31 42.26 42.80 42.14 42.29 41.78 42.05 41.31 42.12 42.86 43.54 44.85 44.83 44.52 44.21 44.32 44.72 45.24 45.86 46.32 46.64 47.05 47.72 48.06 48.48 49.03
43.43 41.61 40.23 40.56 40.80 40.23 39.70 40.32 39.99 41.39 42.38 42.21 43.30 43.33 43.27 43.19 43.14 43.04 43.73 44.05 43.82 44.34 44.78 45.78 46.60 47.11 47.77
40.25 40.78 39.12 38.09 38.21 38.11 35.58 36.15 39.01 41.45 41.74 42.21 42.27 42.37 42.58 42.43 42.27 41.94 41.70 41.79 42.44 43.08 43.48 43.91 45.08 46.14 47.16
38.70 36.99 37.05 36.84 36.07 32.34 32.36 33.94 34.11 39.35 40.48 40.17 40.39 40.79 40.87 41.69 41.44 40.73 40.68 40.94 41.56 42.15 42.81 44.02 44.38 44.68 45.16
34.05 35.47 34.31 32.02 30.50 31.92 31.20 32.04 33.28 34.96 32.64 32.59 32.66 33.32 35.79 39.05 39.96 40.71 40.57 40.79 40.79 41.66 42.68 42.52 42.54 42.71 42.80
30.27 29.56 29.25 29.77 30.73 30.38 30.21 28.99 27.59 32.75 29.99 29.41 32.25 32.57 34.19 34.42 39.72 39.80 40.20 39.87 40.98 40.79 40.74 40.68 40.83 41.16 41.10
29.21 29.11 29.28 30.56 30.99 29.69 29.26 28.25 27.81 30.40 29.49 27.45 30.67 29.64 32.87 34.82 37.42 39.39 39.22 40.14 39.94 39.87 40.06 40.17 40.01 40.03 40.19
31.23 30.79 31.23 31.61 30.67 30.43 29.15 28.31 28.98 30.92 30.26 24.01 28.27 27.25 29.81 30.58 36.69 38.28 38.45 38.80 38.92 39.13 39.34 39.42 39.35 39.39 39.36
35.89 35.32 35.36 34.61 32.87 28.91 25.47 25.49 24.83 26.22 27.74 26.27 26.17 26.13 26.74 27.99 32.28 36.97 37.24 37.26 37.77 38.75 38.52 38.39 38.29 38.25 36.16
28.84 30.75 31.95 31.14 32.74 28.67 27.35 21.55 22.91 22.03 29.46 23.23 23.67 24.79 20.17 24.79 27.54 29.77 30.59 34.97 35.81 35.85 36.91 37.27 36.91 34.35 33.49
27.44 27.30 27.90 27.78 28.14 28.05 27.90 23.39 21.98 22.36 27.72 27.93 26.07 25.67 24.83 23.22 24.11 24.51 26.83 28.47 29.63 32.29 34.90 35.19 35.81 35.45 32.54
27.00 26.61 26.15 26.11 25.69 25.84 27.01 26.24 26.87 26.30 27.44 24.33 19.20 20.97 24.77 24.14 23.77 24.60 27.12 27.28 28.68 30.77 31.89 34.00 34.82 35.03 35.05
26.72 25.64 25.22 24.05 24.41 23.82 24.52 25.95 22.34 26.46 29.56 23.00 22.78 16.67 19.97 23.93 23.52 24.85 25.91 26.05 28.54 29.69 31.00 31.13 30.63 30.99 29.83
26.47 25.40 23.99 21.44 23.11 20.03 15.97 16.19 13.44 16.80 23.86 20.34 20.51 26.10 26.19 26.17 25.54 24.44 26.37 25.07 25.46 28.90 30.99 30.55 30.96 31.20 30.67
26.09 23.91 25.36 27.29 26.99 24.62 18.31 13.55 13.04 13.03 15.45 19.09 24.26 28.91 28.29 26.83 24.27 25.14 25.21 26.20 27.47 29.16 28.35 27.91 29.67 30.31 30.65
28.42 27.09 25.49 25.01 25.60 26.02 25.17 24.66 23.39 21.83 13.37 14.86 24.96 25.46 25.72 24.14 28.88 22.71 22.36 24.20 25.33 25.00 27.27 27.26 27.03 28.82 29.47
27.22 25.40 23.83 22.63 25.48 24.50 24.54 24.52 24.06 24.15 22.87 24.01 24.35 23.54 21.27 19.66 23.56 29.73 22.27 23.39 24.16 26.10 28.18 27.87 26.85 27.99 29.11